Location: Newark
(55.6150°N, 25.7300°E)
Time: 07:34:36
(UTC+00:00)

ISS - Visible Passes

Search period start: 20 September 2020 00:00
Search period end: 30 September 2020 00:00
Orbit: 419 x 420 km, 51.6° (Epoch: 20 September)

Date Brightness Start Highest point End Pass type
(mag) Time Alt. Az. Time Alt. Az. Time Alt. Az.
20 Sep -2.5 18:08:17 10° SW 18:10:53 26° SSE 18:10:53 26° SSE visible
21 Sep -2.2 17:21:19 10° SSW 17:23:55 21° SSE 17:25:31 15° ESE visible
21 Sep -1.8 18:57:03 10° WSW 18:58:30 22° SW 18:58:30 22° SW visible
22 Sep -3.1 18:09:47 10° SW 18:12:55 36° SSE 18:13:00 36° SSE visible
23 Sep -2.7 17:22:34 10° SW 17:25:37 31° SSE 17:27:27 18° ESE visible
23 Sep -1.8 18:58:50 10° WSW 19:00:25 24° WSW 19:00:25 24° WSW visible
24 Sep -3.2 18:11:29 10° WSW 18:14:42 42° S 18:14:48 42° S visible
25 Sep -3.1 17:24:09 10° WSW 17:27:21 40° S 17:29:09 21° ESE visible
25 Sep -1.6 19:00:40 10° W 19:02:06 21° WSW 19:02:06 21° WSW visible
26 Sep -2.8 16:36:51 10° WSW 16:39:59 36° SSE 16:43:08 10° E visible
26 Sep -3.0 18:13:16 10° WSW 18:16:25 39° S 18:16:25 39° S visible
27 Sep -3.0 17:25:51 10° WSW 17:29:05 42° S 17:30:43 23° SE visible
27 Sep -1.2 19:02:37 10° W 19:03:40 16° WSW 19:03:40 16° WSW visible
28 Sep -3.0 16:38:28 10° WSW 16:41:42 42° S 16:44:55 10° ESE visible
28 Sep -2.5 18:15:06 10° W 18:17:58 30° SSW 18:17:58 30° SSW visible
29 Sep -2.7 17:27:37 10° W 17:30:45 35° SSW 17:32:16 23° SE visible
29 Sep -0.8 19:04:52 10° WSW 19:05:13 11° WSW 19:05:13 11° WSW visible
